Header for Extended Forecast Station List Page

Search by: ID | Name | Date | Parm | Value | Avg | % Avg
Sort by: ID | Name | Date | Parm | Value | Avg | % Avg

Enter search or view all records.

Click on id for station plot
#IDNameDateParmValueAvg% Avg
0LYDM8KOOTENAI-LIBBY DAM02-11-2019INFLOW (KAF)2151314168
1LEOI1KOOTENAI-AT LEONIA02-11-2019DISCHARGE (KAF)2581333477
2BFEI1KOOTENAI-AT BONNERS FERRY02-11-2019STAGE (FT)MMM
3FCFM8NF FLATHEAD-NEAR COLUMBIA FALLS02-11-2019DISCHARGE (KAF)767102375
4WGCM8MF FLATHEAD-NEAR WEST GLACIER02-11-2019DISCHARGE (KAF)81498483
5HHWM8SF FLATHEAD-HUNGRY HORSE DAM02-11-2019INFLOW (KAF)1147134186
6CFMM8FLATHEAD-AT COLUMBIA FALLS02-11-2019DISCHARGE (KAF)2115290373
7DLGM8CLARK FORK-AT DEER LODGE02-11-2019DISCHARGE (KAF)687887
8DRMM8CLARK FORK-NR DRUMMOND02-11-2019DISCHARGE (KAF)212MM
9RCCM8ROCK CREEK-NEAR CLINTON02-11-2019DISCHARGE (KAF)14316586
10BONM8BLACKFOOT-NEAR BONNER02-11-2019DISCHARGE (KAF)49756189
11ABOM8CLARK FORK-ABOVE MISSOULA02-11-2019DISCHARGE (KAF)883103485
12BITM8BITTERROOT-NEAR MISSOULA02-11-2019DISCHARGE (KAF)67682282
13BELM8CLARK FORK-BELOW MISSOULA02-11-2019DISCHARGE (KAF)1559187683
14STRM8ST. REGIS-NEAR ST. REGIS02-11-2019DISCHARGE (KAF)16522374
15SRGM8CLARK FORK-AT ST REGIS02-11-2019DISCHARGE (KAF)2147257483
16KERM8FLATHEAD-KERR DAM02-11-2019INFLOW (KAF)2370369264
17NOXM8CLARK FORK-NOXON RAPIDS DAM02-11-2019INFLOW (KAF)4363688263
18CABI1CLARK FORK-CABINET GORGE DAM02-11-2019INFLOW (KAF)4836721667
19PRTI1PRIEST-NEAR PRIEST RIVER02-11-2019DISCHARGE (KAF)56565287
20ALFW1PEND OREILLE-ALBENI FALLS DAM02-11-2019INFLOW (KAF)6009874569
21HOPI1PEND OREILLE-PEND OREILLE LAKE NR HOPE02-11-2019LAKE ELEVATION (FT)MMM
22COEI1COEUR D ALENE-COEUR D ALENE LAKE02-11-2019INFLOW (KAF)2507277390
23SPOW1SPOKANE-AT SPOKANE02-11-2019DISCHARGE (KAF)2359MM
24LLKW1SPOKANE-AT LONGLAKE02-11-2019INFLOW (KAF)2722332782
25SATI1ST MARIES-NEAR SANTA02-11-2019DISCHARGE (KAF)15015099
26SJMI1ST JOE-AT ST MARIES02-11-2019STAGE (FT)MMM
27CIBW1COLUMBIA-AT INTL BOUNDARY02-11-2019DISCHARGE (KAF)17823MM
28LAUW1KETTLE-AT LAURIER02-11-2019DISCHARGE (KAF)998130577
29GCDW1COLUMBIA-GRAND COULEE DAM02-11-2019INFLOW (KAF)215752782678
30CHJW1COLUMBIA-CHIEF JOSEPH DAM02-11-2019INFLOW (KAF)205822709876
31TONW1OKANOGAN-NEAR TONASKET02-11-2019DISCHARGE (KAF)711101670
32PATW1METHOW-NEAR PATEROS02-11-2019DISCHARGE (KAF)39955672
33WELW1COLUMBIA-WELLS DAM02-11-2019INFLOW (KAF)216712873675
34CHDW1CHELAN-LAKE CHELAN DAM02-11-2019INFLOW (KAF)48661879
35RRHW1COLUMBIA-ROCKY REACH DAM02-11-2019INFLOW (KAF)219682915175
36ARDW1ENTIAT-NEAR ARDENVOIR02-11-2019DISCHARGE (KAF)8911974
37PESW1WENATCHEE-AT PESHASTIN02-11-2019DISCHARGE (KAF)87697190
38WANW1COLUMBIA-WANAPUM DAM02-11-2019INFLOW (KAF)228462976177
39PRWW1COLUMBIA-PRIEST RAPIDS DAM02-11-2019INFLOW (KAF)228393023876
40KEDW1YAKIMA-KEECHELUS LAKE02-11-2019INFLOW (KAF)101100100
41KADW1KACHESS-KACHESS DAM02-11-2019INFLOW (KAF)929696
42EASW1YAKIMA-AT EASTON02-11-2019DISCHARGE (KAF)7110171
43CLUW1CLE ELUM-CLE ELUM LAKE02-11-2019INFLOW (KAF)299290103
44TNAW1TEANAWAY-BELOW FORKS02-11-2019DISCHARGE (KAF)144131110
45UMTW1YAKIMA-AT UMTANUM02-11-2019DISCHARGE (KAF)56660494
46BUDW1BUMPING-BUMPING LAKE DAM02-11-2019INFLOW (KAF)858599
47CLFW1NACHES-NEAR CLIFFDEL02-11-2019DISCHARGE (KAF)25729986
48RILW1TIETON-RIMROCK LAKE NEAR RIMROCK02-11-2019INFLOW (KAF)11914582
49NACW1NACHES-NEAR NACHES02-11-2019DISCHARGE (KAF)396376105
50PARW1YAKIMA-NEAR PARKER02-11-2019DISCHARGE (KAF)53065581
51KIOW1YAKIMA-AT KIONA02-11-2019DISCHARGE (KAF)846103182
52IPDI1HENRYS FORK-ISLAND PARK DAM02-11-2019INFLOW (KAF)171171100
53CHEI1FALL RIVER-NEAR CHESTER02-11-2019DISCHARGE (KAF)272260104
54ANTI1HENRYS FORK-AT ST. ANTHONY02-11-2019DISCHARGE (KAF)577576100
55TEAI1TETON-NEAR ST. ANTHONY02-11-2019DISCHARGE (KAF)20822493
56REXI1HENRYS FORK-AT REXBURG02-11-2019DISCHARGE (KAF)62566994
57JLKW4SNAKE-JACKSON LAKE AT DAM02-11-2019INFLOW (KAF)41844793
58JKSW4SNAKE-NEAR JACKSON02-11-2019DISCHARGE (KAF)74982191
59ALPW4SNAKE-NEAR ALPINE02-11-2019DISCHARGE (KAF)998109491
60PLDI1SF SNAKE-PALISADES DAM02-11-2019INFLOW (KAF)1526172189
61HEII1SNAKE-NEAR HEISE02-11-2019DISCHARGE (KAF)1555170391
62RIDI1WILLOW CREEK-RIRIE DAM02-11-2019INFLOW (KAF)5542133
63SIFI1SNAKE-AB EAGLE ROCK NR IDAHO FALLS02-11-2019DISCHARGE (KAF)1560175489
64SHYI1SNAKE-NEAR SHELLEY02-11-2019DISCHARGE (KAF)1443176882
65SNAI1SNAKE-AT BLACKFOOT02-11-2019DISCHARGE (KAF)1182153677
66BFTI1SNAKE-NEAR BLACKFOOT02-11-2019DISCHARGE (KAF)1155152876
67PIHI1PORTNEUF-AT POCATELLO02-11-2019DISCHARGE (KAF)8210280
68AFRI1SNAKE-AMERICAN FALLS RESERVOIR02-11-2019INFLOW (KAF)1749222079
69MILI1SNAKE-AT MILNER02-11-2019DISCHARGE (KAF)39268457
70HOTI1BRUNEAU-NEAR HOT SPRINGS02-11-2019DISCHARGE (KAF)11115572
71SWAI1SNAKE-BELOW SWAN FALLS02-11-2019DISCHARGE (KAF)2101271977
72HWRI1BIG LOST-AT HOWELL RANCH NEAR CHILLY02-11-2019DISCHARGE (KAF)678182
73MACI1BIG LOST-MACKAY RESERVOIR NEAR MACKAY02-11-2019INFLOW (KAF)618274
74HALI1BIG WOOD-AT HAILEY02-11-2019DISCHARGE (KAF)11414281
75MAGI1BIG WOOD-MAGIC DAM02-11-2019INFLOW (KAF)13719271
76LWRI1LITTLE WOOD-LITTLE WOOD DAM02-11-2019INFLOW (KAF)456371
77OWYO3OWYHEE-OWYHEE DAM02-11-2019INFLOW (KAF)26236372
78ARAI1SF BOISE-ANDERSON RANCH DAM02-11-2019INFLOW (KAF)31740478
79LUCI1BOISE-LUCKY PEAK DAM02-11-2019INFLOW (KAF)897MM
80BIGI1BOISE-AT GLENWOOD BRIDGE02-11-2019DISCHARGE (KAF)32432998
81PARI1BOISE-NEAR PARMA02-11-2019DISCHARGE (KAF)36941090
82WRMO3MALHEUR-WARM SPRINGS DAM02-11-2019INFLOW (KAF)8374112
83BERO3MALHEUR-AGENCY VALLEY DAM02-11-2019INFLOW (KAF)325262
84BULO3BULLY CREEK-BULLY CREEK DAM02-11-2019INFLOW (KAF)229248
85VALO3MALHEUR-NEAR VALE02-11-2019DISCHARGE (KAF)556485
86CSDI1NF PAYETTE-CASCADE DAM02-11-2019INFLOW (KAF)37640493
87DEDI1DEADWOOD-NEAR LOWMAN02-11-2019INFLOW (KAF)799384
88EMMI1PAYETTE-NEAR EMMETT02-11-2019DISCHARGE (KAF)781103376
89WSRI1WEISER-NEAR WEISER02-11-2019DISCHARGE (KAF)519431120
90WEII1SNAKE-AT WEISER02-11-2019DISCHARGE (KAF)4050530476
91BRNI1SNAKE-BROWNLEE DAM02-11-2019INFLOW (KAF)4501572979
92WHBI1SALMON-AT WHITEBIRD02-11-2019DISCHARGE (KAF)3045384979
93TRYO3GRANDE RONDE-TROY02-11-2019DISCHARGE (KAF)1091118392
94ANAW1SNAKE-NEAR ANATONE02-11-2019DISCHARGE (KAF)84571168072
95ORFI1CLEARWATER-AT OROFINO02-11-2019DISCHARGE (KAF)3700376098
96DWRI1NF CLEARWATER-DWORSHAK DAM02-11-2019INFLOW (KAF)2406242299
97SPDI1CLEARWATER-AT SPALDING02-11-2019DISCHARGE (KAF)5251596288
98LGDW1SNAKE-LOWER GRANITE DAM02-11-2019INFLOW (KAF)137081766578
99LGSW1SNAKE-LITTLE GOOSE DAM02-11-2019INFLOW (KAF)137081770077
100LMNW1SNAKE-LOWER MONUMENTAL DAM02-11-2019INFLOW (KAF)139001794677
101IHDW1SNAKE-ICE HARBOR DAM02-11-2019INFLOW (KAF)139001779678
102TCHW1WALLA WALLA-NEAR TOUCHET02-11-2019DISCHARGE (KAF)217204107
103MCDW1COLUMBIA-MCNARY DAM02-11-2019INFLOW (KAF)375975011175
104GIBO3UMATILLA-NEAR GIBBON02-11-2019DISCHARGE (KAF)10285121
105PDTO3UMATILLA-AT PENDLETON02-11-2019DISCHARGE (KAF)228194118
106MYKO3MCKAY CREEK-NEAR PILOT ROCK02-11-2019DISCHARGE (KAF)5338139
107UMAO3UMATILLA-NEAR UMATILLA02-11-2019DISCHARGE (KAF)225158142
108MONO3NF JOHN DAY-AT MONUMENT02-11-2019DISCHARGE (KAF)53462086
109SERO3JOHN DAY-AT SERVICE CK02-11-2019DISCHARGE (KAF)73289882
110JDAO3COLUMBIA-JOHN DAY DAM02-11-2019INFLOW (KAF)398405272876
111MODO3DESCHUTES-AT MOODY NR BIGGS02-11-2019DISCHARGE (KAF)1393156889
112TDAO3COLUMBIA-THE DALLES DAM02-11-2019INFLOW (KAF)402015210177
113PITW1KLICKITAT-NEAR PITT02-11-2019DISCHARGE (KAF)43553282
114HODO3HOOD-NEAR TUCKER BRIDGE02-11-2019DISCHARGE (KAF)26828395
115UNDW1WHITE SALMON-NEAR UNDERWOOD02-11-2019DISCHARGE (KAF)29436082
116BONO3COLUMBIA-BONNEVILLE DAM02-11-2019INFLOW (KAF)411625459875